logo tempoitalia

Diretta Meteo Cagliari-Elmas, Italiavenerdì 14 maggio ore 09:20

Mappa
Sereno 17 °C Sereno 24 Ore: T.min 11 T.max 25
Ponente Nord Km/h 5.5 Punto di rugiada: 10 °C Umidità: 63% Visibilità: 10 Km
Il sole sorge alle: 06:09 Il sole tramonta alle: 20:30
14 Maggio 2021 09:20 tempo osservato: Sereno Sereno 17 63 1012 vento: Nord N 5.5
14 Maggio 2021 08:50 tempo osservato: Sereno Sereno 17 63 1012 vento: Nord N 5.5
14 Maggio 2021 08:20 tempo osservato: Sereno Sereno 16 67 1012 vento: Nord N 1.8
14 Maggio 2021 07:50 tempo osservato: Sereno Sereno 15 72 1012 vento: Nord N 1.8
14 Maggio 2021 07:20 tempo osservato: Sereno Sereno 12 81 1012 vento: Nord N 3.7
14 Maggio 2021 06:50 tempo osservato: Sereno Sereno 11 87 1012 vento: Nord N 9.3
14 Maggio 2021 06:20 tempo osservato: Sereno Sereno 11 81 1012 vento: Nord N 1.8
14 Maggio 2021 05:50 tempo osservato: Sereno Sereno 13 76 1012 vento: Nord N 3.7
14 Maggio 2021 05:20 tempo osservato: Sereno Sereno 12 81 1012 vento: Nord N 1.8
14 Maggio 2021 04:50 tempo osservato: Sereno Sereno 12 81 1013 vento: Nord N 5.5
14 Maggio 2021 04:20 tempo osservato: Sereno Sereno 12 81 1013 vento: Nord N 3.7
14 Maggio 2021 03:50 tempo osservato: Sereno Sereno 12 81 1013 vento: Nord N 1.8
14 Maggio 2021 03:20 tempo osservato: Sereno Sereno 12 81 1013 vento: Nord N 1.8
14 Maggio 2021 02:50 tempo osservato: Sereno Sereno 12 81 1013 vento: Nord N 5.5
14 Maggio 2021 02:20 tempo osservato: Sereno Sereno 12 81 1013 vento: Nord N 9.3
14 Maggio 2021 01:50 tempo osservato: Sereno Sereno 13 76 1013 vento: Nord N 7.4
14 Maggio 2021 01:20 tempo osservato: Sereno Sereno 14 71 1013 vento: Nord N/NE 11.1
14 Maggio 2021 00:20 tempo osservato: Sereno Sereno 14 71 1013 vento: Nord N/NE 13
13 Maggio 2021 23:50 tempo osservato: Sereno Sereno 14 71 1013 vento: Nord N/NE 11.1
13 Maggio 2021 23:20 tempo osservato: Sereno Sereno 14 71 1014 vento: Nord N 13
13 Maggio 2021 22:20 tempo osservato: Sereno Sereno 15 67 1014 vento: Nord N 11.1
13 Maggio 2021 21:20 tempo osservato: Sereno Sereno 16 58 1013 vento: Nord N 16.7
13 Maggio 2021 20:50 tempo osservato: Sereno Sereno 17 55 1013 vento: Nord N 22.2
13 Maggio 2021 20:20 tempo osservato: Sereno Sereno 18 55 1012 vento: Nord N 22.2
13 Maggio 2021 19:50 tempo osservato: Sereno Sereno 19 48 1012 vento: Nord N 18.5
13 Maggio 2021 19:20 tempo osservato: Sereno Sereno 20 45 1012 vento: Nord N 18.5
13 Maggio 2021 18:50 tempo osservato: Sereno Sereno 21 43 1011 vento: Nord N 25.9
13 Maggio 2021 18:20 tempo osservato: Sereno Sereno 23 33 1011 vento: Nord N/NO 18.5
13 Maggio 2021 17:20 tempo osservato: Poco Nuvoloso Poco Nuvoloso 24 33 1012 vento: Nord NO 20.3
13 Maggio 2021 16:50 tempo osservato: Poco Nuvoloso Poco Nuvoloso 24 33 1012 vento: Nord NO 18.5
13 Maggio 2021 16:20 tempo osservato: Poco Nuvoloso Poco Nuvoloso 24 33 1012 vento: Nord NO 22.2
13 Maggio 2021 15:50 tempo osservato: Poco Nuvoloso Poco Nuvoloso 25 33 1012 vento: Nord NO 18.5
13 Maggio 2021 15:20 tempo osservato: Nuvoloso Nuvoloso 24 38 1012 vento: Nord N/NO 16.7
13 Maggio 2021 14:50 tempo osservato: Nuvoloso Nuvoloso 23 40 1012 vento: Nord N 16.7
13 Maggio 2021 14:20 tempo osservato: Nuvoloso Nuvoloso 24 41 1012 vento: Nord N 18.5
13 Maggio 2021 13:50 tempo osservato: Nuvoloso Nuvoloso 24 43 1012 vento: Nord N 16.7
13 Maggio 2021 13:20 tempo osservato: Nuvoloso Nuvoloso 23 40 1012 vento: Nord N/NO 18.5
13 Maggio 2021 12:50 tempo osservato: Nuvoloso Nuvoloso 24 41 1013 vento: Nord O/NO 20.3
13 Maggio 2021 12:20 tempo osservato: Nuvoloso Nuvoloso 24 43 1013 vento: Nord NO 20.3
13 Maggio 2021 11:50 tempo osservato: Molto Nuvoloso Molto Nuvoloso 23 46 1013 vento: Nord NO 24
13 Maggio 2021 11:20 tempo osservato: Nuvoloso Nuvoloso 23 43 1012 vento: Nord O/NO 24
13 Maggio 2021 10:50 tempo osservato: Nuvoloso Nuvoloso 22 49 1012 vento: Nord O/NO 22.2